Theta_e
300 302 305 307 312 317 324 331 333 335 335 335 335 333 331 329 328 328 327 321 327 338 342 344 344 342 341 339 337 335 335 332 331 330 330 329 328 328 327 326 326 325 324
298 300 304 306 308 312 318 326 332 333 334 335 334 332 330 330 329 328 329 328 324 332 339 343 343 342 341 339 337 336 335 333 330 329 329 330 329 327 327 326 326 326 326
298 300 302 304 306 309 314 324 330 333 333 334 330 327 326 325 328 329 328 328 327 324 331 339 341 341 340 339 338 337 335 333 331 330 328 327 329 327 327 326 326 327 327
299 300 302 303 306 308 311 322 323 330 331 330 326 324 320 319 321 327 327 326 325 326 324 330 335 337 339 339 339 336 335 333 332 330 328 327 328 328 327 327 327 327 328
297 298 301 303 306 307 310 317 322 323 322 326 323 322 321 321 323 324 323 321 319 317 316 316 317 322 331 337 337 336 335 335 334 333 330 329 330 329 329 329 329 329 329
295 296 298 302 305 306 307 315 321 321 316 306 306 302 305 303 303 303 306 308 307 305 304 306 308 312 316 326 335 336 336 337 335 334 332 331 330 330 330 330 329 329 329
295 296 298 300 304 304 305 310 320 319 312 310 306 303 299 296 295 295 297 296 296 296 297 297 297 301 304 313 327 334 336 336 335 334 333 332 331 331 329 329 329 329 328
300 301 301 301 303 303 305 307 318 317 312 312 309 305 300 300 295 292 292 293 292 293 293 293 292 292 294 299 308 328 333 335 335 336 333 333 332 331 330 330 329 325 322
297 299 299 302 304 306 307 306 312 315 311 311 312 309 302 302 295 291 289 289 289 289 289 289 289 289 290 294 305 315 327 330 332 334 333 332 331 330 328 325 322 317 313
296 295 295 296 299 301 304 306 309 310 315 311 312 311 306 301 300 292 289 286 286 286 285 286 286 286 286 290 299 305 311 317 318 320 320 321 321 320 317 314 311 310 308
294 292 292 293 294 295 298 300 300 303 310 311 312 307 304 300 300 298 290 286 285 283 284 284 285 285 286 288 294 300 303 305 306 308 309 309 309 309 308 306 304 303 303
291 291 289 290 291 291 292 294 297 300 302 308 311 309 303 303 299 295 290 287 288 281 282 282 283 283 284 286 292 296 298 299 299 299 300 300 301 301 301 301 301 301 301
286 287 287 287 288 289 290 291 294 295 295 297 303 308 305 303 300 298 293 286 285 280 281 281 282 282 283 284 287 290 294 296 296 296 296 296 296 296 295 296 296 297 297
285 285 285 285 286 287 288 289 290 289 288 288 287 288 292 293 294 295 294 288 283 280 280 280 280 281 281 282 285 286 286 291 292 293 292 292 291 291 291 291 292 293 295
284 283 283 283 283 285 285 285 286 286 286 285 285 286 286 286 290 291 292 293 295 285 282 278 278 280 280 280 281 280 281 285 287 288 287 287 287 287 288 288 289 291 292
281 281 281 281 281 282 282 283 283 284 285 284 285 285 285 285 287 289 290 290 291 292 284 280 278 278 279 279 280 279 280 280 282 283 283 283 284 285 286 287 288 289 290
278 278 279 279 279 280 281 282 282 283 283 283 283 283 282 284 284 285 287 288 288 288 282 276 278 278 278 278 277 277 278 277 277 279 279 281 282 284 285 286 286 287 287
279 279 279 279 279 279 280 280 279 280 280 280 280 281 280 282 281 282 283 284 284 284 282 276 275 276 276 277 276 276 277 277 276 277 279 281 282 284 284 284 285 285 285
278 278 278 278 278 278 278 279 279 278 278 278 278 278 279 280 279 280 281 280 281 281 280 277 275 276 275 275 274 275 274 275 275 276 279 280 281 281 282 282 283 283 283
278 277 277 277 277 278 278 278 278 278 278 278 278 278 278 278 278 279 279 279 279 278 278 276 275 274 273 274 273 272 272 273 273 274 275 277 277 278 279 280 280 280 280
279 279 278 278 278 278 277 276 277 277 276 277 279 280 281 280 280 279 277 277 277 277 276 275 273 272 271 271 271 271 271 270 271 271 271 271 271 271 271 274 275 277 278
277 278 278 278 278 280 281 280 278 276 276 276 275 276 276 279 282 282 282 281 278 276 274 274 272 270 270 270 270 270 269 268 267 270 269 270 270 270 270 270 275 278 280
276 276 277 278 278 279 281 280 278 277 276 275 275 274 274 274 275 276 279 280 279 280 277 272 271 270 269 270 271 269 269 268 268 270 268 267 269 268 270 271 276 278 279
275 274 274 276 278 279 280 279 278 275 275 274 274 274 273 273 273 273 273 273 273 273 273 272 271 270 270 272 271 271 270 268 267 268 269 263 267 267 268 269 274 276 277
274 275 276 275 275 277 280 279 276 274 274 273 274 274 274 274 277 277 273 272 272 273 278 278 278 278 278 277 274 268 261 260 261 265 267 265 265 264 266 266 268 273 275
275 275 275 275 275 275 278 278 275 275 273 273 273 274 278 276 278 277 272 271 269 269 270 268 269 272 271 271 275 269 266 259 259 259 264 262 262 262 261 264 265 265 266
Wind_Speed
8 8 8 6 6 6 6 8 7 7 11 13 11 13 10 8 6 3 3 9 11 13 16 22 23 23 22 20 19 19 18 17 17 17 17 17 16 16 16 15 15 14 14
8 9 8 8 7 6 7 8 8 9 10 12 13 11 12 8 5 4 3 3 11 13 16 21 23 24 22 21 21 19 19 18 18 17 17 16 17 17 16 16 16 15 15
9 10 8 9 8 5 9 8 9 10 9 9 13 10 12 13 11 10 4 2 3 9 12 21 20 19 22 21 21 20 20 19 19 18 18 18 16 17 17 16 16 15 15
10 10 9 8 8 7 5 7 5 8 10 11 10 12 12 12 13 10 7 6 2 2 2 2 18 19 18 20 20 20 20 20 20 20 18 18 17 18 18 17 18 17 16
11 9 8 9 9 8 5 6 6 3 3 8 10 12 12 14 12 8 9 8 8 3 2 6 7 2 7 16 19 21 21 21 21 21 20 18 18 19 19 18 19 18 17
12 10 9 11 8 8 5 5 9 3 2 7 8 7 4 4 6 5 4 6 6 5 4 3 3 3 7 6 14 19 21 21 22 22 22 22 21 20 19 18 19 20 18
12 11 9 10 8 7 6 6 5 6 2 5 9 4 7 9 10 9 5 5 6 4 5 5 3 4 4 10 9 14 19 22 21 21 21 22 22 21 21 22 23 22 15
11 10 12 10 9 6 7 5 7 4 2 6 4 5 1 4 4 6 5 6 6 4 6 5 4 6 4 4 7 11 18 19 20 21 22 22 22 21 20 17 16 16 15
14 7 10 7 6 5 5 3 5 7 6 5 7 5 4 3 4 2 6 6 6 4 5 4 7 4 5 4 6 6 5 3 4 14 18 21 19 16 15 14 14 12 10
6 7 9 10 5 2 3 1 2 1 3 7 4 3 3 6 5 2 3 4 4 5 5 4 4 6 7 5 10 19 18 16 18 20 20 18 18 16 13 10 8 11 9
5 6 8 9 7 3 3 4 4 3 2 1 1 3 2 1 5 3 4 1 3 4 2 3 4 6 6 8 7 14 22 21 22 22 21 20 18 16 13 9 5 2 4
5 5 6 7 8 4 3 3 3 2 4 3 5 2 2 4 5 3 4 3 1 1 2 3 3 4 5 6 9 17 18 21 20 21 21 20 18 15 12 9 7 7 7
3 4 5 6 6 5 4 5 3 3 4 4 2 4 4 2 3 4 4 3 3 1 0 1 2 2 3 4 7 11 13 17 17 17 17 15 13 11 8 7 5 6 7
4 4 4 5 6 3 2 3 3 3 2 3 1 1 1 1 2 2 6 7 3 2 2 3 1 2 2 3 7 12 7 13 14 15 12 12 9 8 6 4 4 5 7
4 3 4 2 5 3 2 3 2 4 3 1 1 2 4 3 1 3 2 3 7 6 7 3 3 4 3 3 5 5 6 8 10 10 9 8 6 4 2 2 2 4 7
3 4 5 4 5 2 1 2 5 2 2 3 1 5 2 1 3 3 3 0 2 4 4 2 2 3 4 4 6 4 5 6 7 5 5 3 1 2 3 5 5 6 8
3 3 1 1 3 3 7 2 8 5 1 5 6 5 4 5 5 2 1 2 2 3 5 2 3 3 4 5 6 4 4 2 2 2 1 3 4 6 7 8 7 6 7
3 2 3 3 3 7 5 7 8 5 3 4 2 5 5 4 7 4 3 3 5 4 3 7 4 3 3 5 6 4 2 1 1 1 4 6 5 9 8 9 8 8 10
5 5 6 5 7 6 8 7 8 3 6 6 6 6 5 5 6 4 4 5 4 3 4 6 5 3 3 4 3 3 3 3 2 3 8 6 8 6 6 7 11 13 13
6 7 7 7 7 8 7 8 6 7 8 8 9 9 7 8 8 5 5 6 5 7 8 8 7 5 4 3 2 2 2 1 0 1 4 6 6 4 10 11 12 11 12
6 6 7 7 7 6 5 8 8 9 9 10 10 11 10 11 15 10 5 6 7 8 7 8 6 4 4 4 3 3 2 1 1 1 1 2 3 2 4 7 9 12 11
7 8 8 7 8 7 17 16 9 7 8 8 10 8 8 11 18 21 20 16 9 8 9 5 3 5 3 3 3 2 3 2 2 2 1 3 3 3 3 3 9 13 15
6 7 7 7 8 8 15 14 13 6 7 7 7 7 8 7 9 9 17 19 15 13 7 5 8 4 5 6 5 3 3 2 2 2 2 3 1 3 3 4 11 17 18
5 4 5 5 7 8 14 13 12 7 7 7 6 5 7 7 6 6 8 8 7 7 6 5 5 5 5 6 4 2 3 2 1 2 3 3 1 3 2 4 14 15 12
4 4 4 5 5 6 10 9 7 5 6 6 5 5 5 5 9 9 6 7 6 5 9 12 12 11 10 10 7 4 2 3 1 2 2 2 2 3 2 4 4 8 9
4 4 5 5 5 4 5 6 4 3 5 3 4 4 6 5 7 6 4 4 4 3 3 4 3 4 4 2 8 4 4 3 2 3 4 3 1 1 4 3 3 2 4
Wind_Direction
307 307 300 293 288 297 296 273 238 221 210 200 204 184 173 164 158 198 214 224 229 221 209 197 194 184 182 179 185 185 187 190 191 194 195 190 190 190 190 191 192 192 194
300 297 297 295 291 290 295 286 236 226 211 201 199 195 168 152 168 195 219 245 232 212 202 203 202 187 184 184 184 189 190 191 194 197 200 199 195 197 196 197 199 200 203
296 293 291 291 283 281 291 286 271 223 223 211 193 168 176 179 187 188 183 246 249 244 206 198 201 200 187 189 192 192 198 196 194 199 204 204 203 201 201 204 208 208 209
294 298 290 283 286 283 279 281 282 256 231 207 187 179 175 188 185 188 181 152 161 178 15 146 202 202 202 196 197 196 203 201 199 199 208 209 207 209 207 207 210 215 214
295 288 289 284 283 280 270 272 256 251 284 210 194 171 178 180 187 177 155 125 111 92 79 40 52 50 228 206 206 209 208 208 201 198 197 207 210 212 212 211 212 212 220
290 284 280 280 275 274 270 264 244 210 66 111 29 51 44 62 80 66 80 94 102 101 75 22 352 11 355 309 231 224 223 214 209 204 196 197 204 212 214 219 219 216 218
281 277 271 273 266 262 260 267 242 191 176 139 106 2 44 39 24 54 48 55 65 64 77 69 22 9 340 334 284 241 233 231 222 215 205 197 205 210 213 220 218 226 167
297 297 278 262 254 253 256 258 251 196 150 210 130 123 140 45 51 21 35 61 55 48 55 55 53 41 357 339 312 263 240 239 235 220 212 208 207 211 219 213 160 157 154
302 311 316 287 249 224 246 232 256 255 180 210 172 123 151 156 113 354 25 42 51 50 51 42 52 36 26 345 347 8 115 108 244 230 219 210 213 193 156 149 144 142 152
321 345 339 321 310 332 304 297 320 359 215 181 147 101 48 132 136 188 32 358 39 58 32 33 65 44 22 6 36 57 63 78 89 93 91 88 92 99 103 111 135 145 151
352 355 348 327 315 352 356 325 321 343 306 276 105 124 70 63 90 145 140 253 19 22 41 29 44 64 30 24 43 64 81 80 83 84 90 92 94 92 89 86 87 112 125
318 335 344 332 310 343 2 328 304 18 352 297 206 143 169 193 148 149 112 114 153 3 0 47 38 53 49 38 54 79 82 87 85 88 89 91 88 88 87 73 53 25 8
299 324 341 330 298 305 352 329 279 51 22 313 344 212 224 211 125 108 107 119 128 182 165 35 94 71 73 69 56 55 82 94 92 87 86 83 88 91 84 71 46 8 338
297 327 339 310 279 344 1 336 332 81 61 300 91 51 322 140 60 120 153 143 123 176 192 147 87 99 92 88 96 79 64 75 83 88 86 91 90 83 71 53 21 346 319
302 308 242 288 316 338 340 60 18 318 23 69 105 70 77 352 245 108 285 145 148 164 209 179 135 145 135 109 98 85 82 73 86 88 86 77 73 62 38 24 312 309 296
336 321 11 349 267 27 37 114 99 324 357 300 101 112 120 128 56 51 116 39 80 131 123 126 103 136 137 113 104 91 89 71 68 77 77 64 13 308 287 269 271 277 278
359 25 317 261 20 30 43 76 73 69 47 37 10 54 47 83 89 26 100 64 52 94 115 95 95 139 113 129 91 74 66 95 134 44 7 270 266 274 276 280 278 271 275
8 28 21 62 75 64 53 56 77 54 92 97 85 78 55 57 62 52 57 79 83 44 116 134 119 135 81 122 109 106 95 25 281 282 279 265 269 261 279 278 273 268 283
22 29 46 42 58 68 79 56 63 73 86 77 84 84 66 93 83 73 74 77 79 93 86 122 127 112 99 113 114 123 171 208 230 257 272 276 258 265 257 273 289 292 292
38 47 47 51 47 52 73 89 111 104 90 77 67 68 65 60 70 77 82 85 97 92 94 105 100 105 106 140 98 149 186 149 284 308 284 251 226 256 290 291 293 290 288
44 53 64 64 76 84 84 80 74 77 79 73 68 69 72 85 90 84 82 86 98 96 101 107 102 115 119 146 177 158 136 113 303 261 284 248 261 266 271 278 280 282 279
44 50 54 61 61 71 83 86 84 87 86 83 79 67 56 61 75 79 81 82 87 111 115 104 115 136 129 126 146 168 115 150 188 241 286 252 210 244 241 238 273 282 286
55 51 57 68 75 79 90 94 88 82 84 78 86 89 80 65 62 72 76 74 69 81 98 134 142 152 146 181 147 142 159 150 184 187 52 285 267 266 236 256 277 292 290
60 45 41 48 87 91 91 93 93 85 84 73 72 79 93 94 89 93 90 81 72 69 64 80 99 121 129 136 130 131 129 112 345 276 150 261 338 264 286 256 286 292 291
39 42 49 47 49 84 108 112 97 80 80 73 68 66 78 91 113 116 100 98 88 67 97 108 118 121 128 142 150 102 68 89 293 233 193 187 319 304 305 294 295 286 292
42 33 49 35 45 74 115 118 102 91 93 65 54 61 101 104 109 114 108 138 128 144 98 56 40 78 81 161 182 160 149 128 174 312 202 168 260 14 310 270 293 307 303